contact:dominique.lefevre@mio.osupytheas.fr, maurice.libes@osupytheas.fr, didier.mallarino@osupytheas.fr
Project:EMSO http://www.emso-fr.org/EMSO-France
Depth: 2436.0 m
Title:EMSO Ligure Ouest : Data MII capteur CSTAR
DateTime,Latitude,Longitude,Instrument_Serial,Reference_Counts,Signal_Counts,Corrected_Signal_raw_counts,Calculated_Beam_c_inverse_meters,Internal_thermistor_counts
DateTime,Latitude,Longitude,Instrument_Serial,Reference_Counts,Signal_Counts,Corrected_Signal_raw_counts,Calculated_Beam_c_inverse_meters,Internal_thermistor_counts
2019-12-28T00:01:27,42.805,6.029,CST-1368DR,7074,9910,15268,0.090,551
2019-12-28T00:04:29,42.805,6.029,CST-1368DR,7074,9914,15273,0.089,551
2019-12-28T00:07:31,42.805,6.029,CST-1368DR,7074,9914,15273,0.089,551
2019-12-28T00:10:32,42.805,6.029,CST-1368DR,7074,9914,15273,0.089,551
2019-12-28T00:13:34,42.805,6.029,CST-1368DR,7074,9914,15273,0.089,550
2019-12-28T00:16:35,42.805,6.029,CST-1368DR,7074,9914,15273,0.089,551
2019-12-28T00:19:37,42.805,6.029,CST-1368DR,7074,9912,15271,0.089,551
2019-12-28T00:22:39,42.805,6.029,CST-1368DR,7074,9914,15274,0.089,551
2019-12-28T00:25:40,42.805,6.029,CST-1368DR,7074,9914,15273,0.089,551
2019-12-28T00:28:42,42.805,6.029,CST-1368DR,7074,9914,15273,0.089,551
2019-12-28T00:31:44,42.805,6.029,CST-1368DR,7074,9912,15271,0.089,550
2019-12-28T00:34:45,42.805,6.029,CST-1368DR,7074,9915,15275,0.088,551
2019-12-28T00:37:47,42.805,6.029,CST-1368DR,7074,9916,15276,0.088,551
2019-12-28T00:40:49,42.805,6.029,CST-1368DR,7074,9913,15272,0.089,550
2019-12-28T00:43:50,42.805,6.029,CST-1368DR,7074,9914,15273,0.089,551
2019-12-28T00:46:52,42.805,6.029,CST-1368DR,7074,9915,15275,0.088,551
2019-12-28T00:49:53,42.805,6.029,CST-1368DR,7074,9914,15273,0.089,551
2019-12-28T00:52:55,42.805,6.029,CST-1368DR,7074,9908,15264,0.091,550
2019-12-28T00:55:57,42.805,6.029,CST-1368DR,7074,9915,15276,0.088,551
2019-12-28T00:58:58,42.805,6.029,CST-1368DR,7074,9912,15271,0.089,551
2019-12-28T01:02:00,42.805,6.029,CST-1368DR,7074,9913,15271,0.089,551
2019-12-28T01:05:02,42.805,6.029,CST-1368DR,7074,9910,15267,0.090,551
2019-12-28T01:08:03,42.805,6.029,CST-1368DR,7074,9910,15268,0.090,551
2019-12-28T01:11:05,42.805,6.029,CST-1368DR,7074,9913,15272,0.089,551
2019-12-28T01:14:07,42.805,6.029,CST-1368DR,7074,9914,15274,0.089,551
2019-12-28T01:17:08,42.805,6.029,CST-1368DR,7074,9914,15273,0.089,551
2019-12-28T01:20:10,42.805,6.029,CST-1368DR,7074,9910,15267,0.090,551
2019-12-28T01:23:12,42.805,6.029,CST-1368DR,7074,9912,15271,0.089,551
2019-12-28T01:26:13,42.805,6.029,CST-1368DR,7074,9914,15274,0.089,551
2019-12-28T01:29:15,42.805,6.029,CST-1368DR,7074,9913,15272,0.089,550
2019-12-28T01:32:17,42.805,6.029,CST-1368DR,7074,9912,15270,0.090,551
2019-12-28T01:35:18,42.805,6.029,CST-1368DR,7074,9913,15273,0.089,551
2019-12-28T01:38:20,42.805,6.029,CST-1368DR,7074,9911,15268,0.090,551
2019-12-28T01:41:22,42.805,6.029,CST-1368DR,7074,9913,15272,0.089,551
2019-12-28T01:44:23,42.805,6.029,CST-1368DR,7074,9913,15271,0.089,551
2019-12-28T01:47:25,42.805,6.029,CST-1368DR,7074,9914,15274,0.089,551
2019-12-28T01:50:27,42.805,6.029,CST-1368DR,7074,9914,15273,0.089,551
2019-12-28T01:53:28,42.805,6.029,CST-1368DR,7074,9915,15275,0.088,551
2019-12-28T01:56:30,42.805,6.029,CST-1368DR,7073,9913,15274,0.089,551
2019-12-28T01:59:32,42.805,6.029,CST-1368DR,7073,9906,15264,0.091,551
2019-12-28T02:02:33,42.805,6.029,CST-1368DR,7074,9913,15273,0.089,551
2019-12-28T02:05:35,42.805,6.029,CST-1368DR,7073,9913,15274,0.089,551
2019-12-28T02:08:37,42.805,6.029,CST-1368DR,7073,9913,15274,0.089,551
2019-12-28T02:11:38,42.805,6.029,CST-1368DR,7073,9912,15273,0.089,550
2019-12-28T02:14:40,42.805,6.029,CST-1368DR,7073,9912,15272,0.089,551
2019-12-28T02:17:41,42.805,6.029,CST-1368DR,7073,9910,15270,0.090,551
2019-12-28T02:20:43,42.805,6.029,CST-1368DR,7073,9913,15273,0.089,551
2019-12-28T02:23:45,42.805,6.029,CST-1368DR,7073,9912,15273,0.089,551
2019-12-28T02:26:47,42.805,6.029,CST-1368DR,7073,9912,15273,0.089,551
2019-12-28T02:29:48,42.805,6.029,CST-1368DR,7073,9911,15271,0.089,551
2019-12-28T02:32:50,42.805,6.029,CST-1368DR,7073,9912,15273,0.089,551
2019-12-28T02:35:52,42.805,6.029,CST-1368DR,7073,9913,15274,0.089,551
2019-12-28T02:38:53,42.805,6.029,CST-1368DR,7073,9913,15274,0.089,551
2019-12-28T02:41:55,42.805,6.029,CST-1368DR,7073,9914,15275,0.088,551
2019-12-28T02:44:56,42.805,6.029,CST-1368DR,7073,9913,15274,0.089,551
2019-12-28T02:47:58,42.805,6.029,CST-1368DR,7073,9910,15270,0.090,551
2019-12-28T02:51:00,42.805,6.029,CST-1368DR,7073,9911,15271,0.089,551
2019-12-28T02:54:02,42.805,6.029,CST-1368DR,7073,9912,15273,0.089,551
2019-12-28T02:57:03,42.805,6.029,CST-1368DR,7073,9913,15275,0.088,551
2019-12-28T03:00:06,42.805,6.029,CST-1368DR,7073,9913,15274,0.089,551
2019-12-28T03:03:07,42.805,6.029,CST-1368DR,7073,9912,15273,0.089,551
2019-12-28T03:06:09,42.805,6.029,CST-1368DR,7073,9908,15266,0.091,551
2019-12-28T03:09:11,42.805,6.029,CST-1368DR,7073,9911,15271,0.089,551
2019-12-28T03:12:12,42.805,6.029,CST-1368DR,7073,9912,15273,0.089,551
2019-12-28T03:15:14,42.805,6.029,CST-1368DR,7073,9911,15272,0.089,551
2019-12-28T03:18:16,42.805,6.029,CST-1368DR,7073,9912,15273,0.089,551
2019-12-28T03:21:17,42.805,6.029,CST-1368DR,7073,9908,15266,0.091,551
2019-12-28T03:24:19,42.805,6.029,CST-1368DR,7073,9912,15272,0.089,551
2019-12-28T03:27:20,42.805,6.029,CST-1368DR,7073,9911,15271,0.089,551
2019-12-28T03:30:22,42.805,6.029,CST-1368DR,7073,9910,15270,0.090,551
2019-12-28T03:33:24,42.805,6.029,CST-1368DR,7073,9910,15270,0.090,551
2019-12-28T03:36:25,42.805,6.029,CST-1368DR,7073,9911,15271,0.089,551
2019-12-28T03:39:27,42.805,6.029,CST-1368DR,7073,9909,15268,0.090,551
2019-12-28T03:42:29,42.805,6.029,CST-1368DR,7073,9911,15270,0.090,551
2019-12-28T03:45:30,42.805,6.029,CST-1368DR,7073,9912,15273,0.089,551
2019-12-28T03:48:32,42.805,6.029,CST-1368DR,7073,9911,15271,0.089,551
2019-12-28T03:51:34,42.805,6.029,CST-1368DR,7073,9911,15271,0.089,551
2019-12-28T03:54:35,42.805,6.029,CST-1368DR,7073,9910,15270,0.090,551
2019-12-28T03:57:37,42.805,6.029,CST-1368DR,7073,9912,15272,0.089,551
2019-12-28T04:00:39,42.805,6.029,CST-1368DR,7073,9907,15265,0.091,551
2019-12-28T04:03:41,42.805,6.029,CST-1368DR,7073,9908,15266,0.091,551
2019-12-28T04:06:42,42.805,6.029,CST-1368DR,7073,9910,15270,0.090,550
2019-12-28T04:09:44,42.805,6.029,CST-1368DR,7073,9911,15271,0.089,551
2019-12-28T04:12:45,42.805,6.029,CST-1368DR,7073,9911,15272,0.089,551
2019-12-28T04:15:47,42.805,6.029,CST-1368DR,7073,9911,15272,0.089,551
2019-12-28T04:18:49,42.805,6.029,CST-1368DR,7073,9912,15272,0.089,551
2019-12-28T04:21:50,42.805,6.029,CST-1368DR,7073,9911,15272,0.089,551
2019-12-28T04:24:52,42.805,6.029,CST-1368DR,7073,9910,15270,0.090,551
2019-12-28T04:27:54,42.805,6.029,CST-1368DR,7073,9912,15272,0.089,551
2019-12-28T04:30:55,42.805,6.029,CST-1368DR,7073,9910,15270,0.090,551
2019-12-28T04:33:57,42.805,6.029,CST-1368DR,7073,9911,15271,0.089,551
2019-12-28T04:36:59,42.805,6.029,CST-1368DR,7073,9910,15270,0.090,551
2019-12-28T04:40:00,42.805,6.029,CST-1368DR,7073,9911,15271,0.089,551
2019-12-28T04:43:02,42.805,6.029,CST-1368DR,7073,9909,15268,0.090,551
2019-12-28T04:46:04,42.805,6.029,CST-1368DR,7073,9910,15269,0.090,551
2019-12-28T04:49:05,42.805,6.029,CST-1368DR,7073,9910,15270,0.090,551
2019-12-28T04:52:07,42.805,6.029,CST-1368DR,7073,9912,15273,0.089,551
2019-12-28T04:55:08,42.805,6.029,CST-1368DR,7073,9911,15271,0.089,551
2019-12-28T04:58:10,42.805,6.029,CST-1368DR,7073,9910,15269,0.090,551
2019-12-28T05:01:12,42.805,6.029,CST-1368DR,7073,9909,15268,0.090,551
2019-12-28T05:04:13,42.805,6.029,CST-1368DR,7073,9911,15270,0.090,551
2019-12-28T05:07:15,42.805,6.029,CST-1368DR,7073,9911,15271,0.089,551
2019-12-28T05:10:17,42.805,6.029,CST-1368DR,7073,9910,15270,0.090,551
2019-12-28T05:13:19,42.805,6.029,CST-1368DR,7072,9910,15271,0.089,551
2019-12-28T05:16:20,42.805,6.029,CST-1368DR,7073,9911,15270,0.090,551
2019-12-28T05:19:22,42.805,6.029,CST-1368DR,7072,9911,15273,0.089,551
2019-12-28T05:22:23,42.805,6.029,CST-1368DR,7072,9910,15271,0.089,551
2019-12-28T05:25:25,42.805,6.029,CST-1368DR,7072,9910,15271,0.089,551
2019-12-28T05:28:27,42.805,6.029,CST-1368DR,7072,9910,15272,0.089,551
2019-12-28T05:31:28,42.805,6.029,CST-1368DR,7072,9909,15270,0.090,551
2019-12-28T05:34:30,42.805,6.029,CST-1368DR,7072,9911,15274,0.089,551
2019-12-28T05:37:32,42.805,6.029,CST-1368DR,7072,9911,15273,0.089,551
2019-12-28T05:40:33,42.805,6.029,CST-1368DR,7072,9911,15273,0.089,551
2019-12-28T05:43:35,42.805,6.029,CST-1368DR,7072,9910,15272,0.089,551
2019-12-28T05:46:37,42.805,6.029,CST-1368DR,7072,9909,15270,0.090,551
2019-12-28T05:49:38,42.805,6.029,CST-1368DR,7072,9908,15269,0.090,551
2019-12-28T05:52:40,42.805,6.029,CST-1368DR,7072,9911,15273,0.089,551
2019-12-28T05:55:42,42.805,6.029,CST-1368DR,7072,9911,15272,0.089,551
2019-12-28T05:58:43,42.805,6.029,CST-1368DR,7072,9911,15274,0.089,551
2019-12-28T06:01:45,42.805,6.029,CST-1368DR,7072,9909,15270,0.090,551
2019-12-28T06:04:47,42.805,6.029,CST-1368DR,7072,9910,15272,0.089,551
2019-12-28T06:07:48,42.805,6.029,CST-1368DR,7072,9907,15267,0.090,551
2019-12-28T06:10:50,42.805,6.029,CST-1368DR,7072,9910,15272,0.089,551
2019-12-28T06:13:52,42.805,6.029,CST-1368DR,7072,9909,15271,0.089,551
2019-12-28T06:16:53,42.805,6.029,CST-1368DR,7072,9907,15266,0.091,550
2019-12-28T06:19:55,42.805,6.029,CST-1368DR,7072,9910,15271,0.089,551
2019-12-28T06:22:56,42.805,6.029,CST-1368DR,7072,9908,15268,0.090,551
2019-12-28T06:25:58,42.805,6.029,CST-1368DR,7072,9910,15271,0.089,551
2019-12-28T06:29:00,42.805,6.029,CST-1368DR,7072,9910,15271,0.089,550
2019-12-28T06:32:01,42.805,6.029,CST-1368DR,7072,9911,15273,0.089,551
2019-12-28T06:35:03,42.805,6.029,CST-1368DR,7072,9911,15273,0.089,551
2019-12-28T06:38:05,42.805,6.029,CST-1368DR,7072,9911,15273,0.089,551
2019-12-28T06:41:06,42.805,6.029,CST-1368DR,7072,9910,15271,0.089,551
2019-12-28T06:44:08,42.805,6.029,CST-1368DR,7072,9910,15272,0.089,551
2019-12-28T06:47:10,42.805,6.029,CST-1368DR,7072,9910,15271,0.089,551
2019-12-28T06:50:11,42.805,6.029,CST-1368DR,7072,9911,15273,0.089,551
2019-12-28T06:53:13,42.805,6.029,CST-1368DR,7072,9910,15272,0.089,551
2019-12-28T06:56:14,42.805,6.029,CST-1368DR,7072,9910,15271,0.089,551
2019-12-28T06:59:16,42.805,6.029,CST-1368DR,7072,9906,15266,0.091,551
2019-12-28T07:02:18,42.805,6.029,CST-1368DR,7072,9911,15273,0.089,551
2019-12-28T07:05:19,42.805,6.029,CST-1368DR,7072,9910,15272,0.089,550
2019-12-28T07:08:21,42.805,6.029,CST-1368DR,7072,9911,15272,0.089,550
2019-12-28T07:11:23,42.805,6.029,CST-1368DR,7072,9910,15272,0.089,550
2019-12-28T07:14:24,42.805,6.029,CST-1368DR,7072,9903,15261,0.092,551
2019-12-28T07:17:26,42.805,6.029,CST-1368DR,7072,9910,15272,0.089,551
2019-12-28T07:20:28,42.805,6.029,CST-1368DR,7072,9909,15270,0.090,551
2019-12-28T07:23:29,42.805,6.029,CST-1368DR,7072,9910,15271,0.089,551
2019-12-28T07:26:31,42.805,6.029,CST-1368DR,7072,9910,15272,0.089,551
2019-12-28T07:29:33,42.805,6.029,CST-1368DR,7072,9910,15271,0.089,550
2019-12-28T07:32:35,42.805,6.029,CST-1368DR,7072,9910,15272,0.089,551
2019-12-28T07:35:36,42.805,6.029,CST-1368DR,7072,9908,15268,0.090,550
2019-12-28T07:38:38,42.805,6.029,CST-1368DR,7072,9911,15272,0.089,551
2019-12-28T07:41:40,42.805,6.029,CST-1368DR,7072,9910,15272,0.089,550
2019-12-28T07:44:41,42.805,6.029,CST-1368DR,7072,9906,15265,0.091,551
2019-12-28T07:47:43,42.805,6.029,CST-1368DR,7072,9908,15269,0.090,551
2019-12-28T07:50:45,42.805,6.029,CST-1368DR,7072,9909,15270,0.090,551
2019-12-28T07:53:46,42.805,6.029,CST-1368DR,7072,9910,15271,0.089,551
2019-12-28T07:56:48,42.805,6.029,CST-1368DR,7072,9909,15270,0.090,551
2019-12-28T07:59:49,42.805,6.029,CST-1368DR,7072,9909,15270,0.090,551
2019-12-28T08:02:51,42.805,6.029,CST-1368DR,7072,9910,15271,0.089,551
2019-12-28T08:05:53,42.805,6.029,CST-1368DR,7072,9909,15269,0.090,551
2019-12-28T08:08:54,42.805,6.029,CST-1368DR,7072,9910,15271,0.089,551
2019-12-28T08:11:56,42.805,6.029,CST-1368DR,7072,9909,15271,0.089,551
2019-12-28T08:14:58,42.805,6.029,CST-1368DR,7072,9910,15271,0.089,551
2019-12-28T08:17:59,42.805,6.029,CST-1368DR,7072,9909,15269,0.090,551
2019-12-28T08:21:01,42.805,6.029,CST-1368DR,7072,9909,15270,0.090,551
2019-12-28T08:24:03,42.805,6.029,CST-1368DR,7072,9907,15267,0.090,551
2019-12-28T08:27:04,42.805,6.029,CST-1368DR,7072,9911,15273,0.089,551
2019-12-28T08:30:06,42.805,6.029,CST-1368DR,7072,9909,15269,0.090,551
2019-12-28T08:33:08,42.805,6.029,CST-1368DR,7072,9909,15270,0.090,551
2019-12-28T08:36:10,42.805,6.029,CST-1368DR,7072,9907,15267,0.090,551
2019-12-28T08:39:11,42.805,6.029,CST-1368DR,7072,9908,15269,0.090,551
2019-12-28T08:42:13,42.805,6.029,CST-1368DR,7072,9909,15271,0.089,551
2019-12-28T08:45:14,42.805,6.029,CST-1368DR,7072,9908,15269,0.090,550
2019-12-28T08:48:16,42.805,6.029,CST-1368DR,7072,9909,15270,0.090,551
2019-12-28T08:51:18,42.805,6.029,CST-1368DR,7072,9905,15263,0.091,551
2019-12-28T08:54:19,42.805,6.029,CST-1368DR,7072,9908,15269,0.090,551
2019-12-28T08:57:21,42.805,6.029,CST-1368DR,7071,9909,15272,0.089,551
2019-12-28T09:00:23,42.805,6.029,CST-1368DR,7071,9909,15272,0.089,551
2019-12-28T09:03:24,42.805,6.029,CST-1368DR,7072,9907,15266,0.091,551
2019-12-28T09:06:26,42.805,6.029,CST-1368DR,7071,9907,15268,0.090,551
2019-12-28T09:09:28,42.805,6.029,CST-1368DR,7072,9907,15267,0.090,551
2019-12-28T09:12:29,42.805,6.029,CST-1368DR,7071,9909,15272,0.089,551
2019-12-28T09:15:31,42.805,6.029,CST-1368DR,7072,9909,15271,0.089,551
2019-12-28T09:18:33,42.805,6.029,CST-1368DR,7072,9910,15271,0.089,551
2019-12-28T09:21:34,42.805,6.029,CST-1368DR,7071,9909,15273,0.089,551
2019-12-28T09:24:36,42.805,6.029,CST-1368DR,7072,9909,15270,0.090,551
2019-12-28T09:27:37,42.805,6.029,CST-1368DR,7071,9909,15271,0.089,551
2019-12-28T09:30:39,42.805,6.029,CST-1368DR,7071,9910,15274,0.089,551
2019-12-28T09:33:41,42.805,6.029,CST-1368DR,7071,9907,15269,0.090,551
2019-12-28T09:36:42,42.805,6.029,CST-1368DR,7071,9910,15273,0.089,551
2019-12-28T09:39:44,42.805,6.029,CST-1368DR,7071,9910,15273,0.089,551
2019-12-28T09:42:46,42.805,6.029,CST-1368DR,7071,9908,15270,0.090,551
2019-12-28T09:45:47,42.805,6.029,CST-1368DR,7071,9909,15272,0.089,551
2019-12-28T09:48:49,42.805,6.029,CST-1368DR,7071,9908,15271,0.089,551
2019-12-28T09:51:51,42.805,6.029,CST-1368DR,7071,9909,15272,0.089,551
2019-12-28T09:54:52,42.805,6.029,CST-1368DR,7071,9909,15272,0.089,551
2019-12-28T09:57:54,42.805,6.029,CST-1368DR,7071,9909,15273,0.089,551
2019-12-28T10:00:56,42.805,6.029,CST-1368DR,7071,9907,15269,0.090,551
2019-12-28T10:03:57,42.805,6.029,CST-1368DR,7071,9908,15270,0.090,551
2019-12-28T10:06:59,42.805,6.029,CST-1368DR,7071,9908,15271,0.089,551
2019-12-28T10:10:01,42.805,6.029,CST-1368DR,7071,9906,15267,0.090,551
2019-12-28T10:13:02,42.805,6.029,CST-1368DR,7071,9907,15269,0.090,551
2019-12-28T10:16:04,42.805,6.029,CST-1368DR,7071,9906,15267,0.090,551
2019-12-28T10:19:06,42.805,6.029,CST-1368DR,7071,9909,15271,0.089,551
2019-12-28T10:22:07,42.805,6.029,CST-1368DR,7071,9906,15268,0.090,551
2019-12-28T10:25:09,42.805,6.029,CST-1368DR,7071,9907,15268,0.090,551
2019-12-28T10:28:11,42.805,6.029,CST-1368DR,7071,9908,15270,0.090,551
2019-12-28T10:31:12,42.805,6.029,CST-1368DR,7071,9909,15272,0.089,551
2019-12-28T10:34:14,42.805,6.029,CST-1368DR,7071,9908,15270,0.090,551
2019-12-28T10:37:15,42.805,6.029,CST-1368DR,7071,9909,15272,0.089,551
2019-12-28T10:40:17,42.805,6.029,CST-1368DR,7071,9907,15269,0.090,551
2019-12-28T10:43:19,42.805,6.029,CST-1368DR,7071,9907,15269,0.090,551
2019-12-28T10:46:21,42.805,6.029,CST-1368DR,7071,9908,15270,0.090,551
2019-12-28T10:49:22,42.805,6.029,CST-1368DR,7071,9906,15268,0.090,551
2019-12-28T10:52:24,42.805,6.029,CST-1368DR,7071,9909,15272,0.089,551
2019-12-28T10:55:25,42.805,6.029,CST-1368DR,7071,9909,15272,0.089,551
2019-12-28T10:58:27,42.805,6.029,CST-1368DR,7071,9907,15269,0.090,551
2019-12-28T11:01:29,42.805,6.029,CST-1368DR,7071,9907,15269,0.090,551
2019-12-28T11:04:30,42.805,6.029,CST-1368DR,7071,9908,15270,0.090,551
2019-12-28T11:07:32,42.805,6.029,CST-1368DR,7071,9908,15271,0.089,551
2019-12-28T11:10:34,42.805,6.029,CST-1368DR,7071,9907,15269,0.090,551
2019-12-28T11:13:35,42.805,6.029,CST-1368DR,7071,9902,15261,0.092,551
2019-12-28T11:16:37,42.805,6.029,CST-1368DR,7071,9907,15269,0.090,551
2019-12-28T11:19:39,42.805,6.029,CST-1368DR,7071,9908,15271,0.089,551
2019-12-28T11:22:40,42.805,6.029,CST-1368DR,7071,9906,15268,0.090,551
2019-12-28T11:25:42,42.805,6.029,CST-1368DR,7071,9909,15273,0.089,551
2019-12-28T11:28:44,42.805,6.029,CST-1368DR,7071,9908,15270,0.090,551
2019-12-28T11:31:45,42.805,6.029,CST-1368DR,7071,9909,15271,0.089,551
2019-12-28T11:34:47,42.805,6.029,CST-1368DR,7071,9905,15266,0.091,551
2019-12-28T11:37:48,42.805,6.029,CST-1368DR,7071,9907,15269,0.090,551
2019-12-28T11:40:50,42.805,6.029,CST-1368DR,7071,9908,15271,0.089,551
2019-12-28T11:43:52,42.805,6.029,CST-1368DR,7071,9908,15271,0.089,551
2019-12-28T11:46:54,42.805,6.029,CST-1368DR,7071,9905,15266,0.091,551
2019-12-28T11:49:55,42.805,6.029,CST-1368DR,7071,9909,15271,0.089,551
2019-12-28T11:52:57,42.805,6.029,CST-1368DR,7071,9907,15268,0.090,551
2019-12-28T11:55:58,42.805,6.029,CST-1368DR,7071,9909,15273,0.089,550
2019-12-28T11:59:00,42.805,6.029,CST-1368DR,7071,9904,15265,0.091,551
2019-12-28T12:02:02,42.805,6.029,CST-1368DR,7071,9907,15269,0.090,550
2019-12-28T12:05:03,42.805,6.029,CST-1368DR,7071,9909,15271,0.089,551
2019-12-28T12:08:05,42.805,6.029,CST-1368DR,7071,9909,15272,0.089,551
2019-12-28T12:11:07,42.805,6.029,CST-1368DR,7071,9909,15271,0.089,551
2019-12-28T12:14:08,42.805,6.029,CST-1368DR,7071,9909,15271,0.089,551
2019-12-28T12:17:10,42.805,6.029,CST-1368DR,7071,9909,15272,0.089,551
2019-12-28T12:20:12,42.805,6.029,CST-1368DR,7071,9908,15270,0.090,551
2019-12-28T12:23:13,42.805,6.029,CST-1368DR,7071,9907,15269,0.090,551
2019-12-28T12:26:15,42.805,6.029,CST-1368DR,7071,9907,15268,0.090,551
2019-12-28T12:29:17,42.805,6.029,CST-1368DR,7071,9909,15272,0.089,551
2019-12-28T12:32:18,42.805,6.029,CST-1368DR,7071,9907,15269,0.090,551
2019-12-28T12:35:20,42.805,6.029,CST-1368DR,7071,9909,15272,0.089,551
2019-12-28T12:38:21,42.805,6.029,CST-1368DR,7071,9909,15272,0.089,551
2019-12-28T12:41:23,42.805,6.029,CST-1368DR,7071,9908,15271,0.089,551
2019-12-28T12:44:25,42.805,6.029,CST-1368DR,7071,9909,15272,0.089,551
2019-12-28T12:47:26,42.805,6.029,CST-1368DR,7071,9909,15273,0.089,551
2019-12-28T12:50:28,42.805,6.029,CST-1368DR,7071,9908,15271,0.089,551
2019-12-28T12:53:30,42.805,6.029,CST-1368DR,7071,9907,15269,0.090,551
2019-12-28T12:56:31,42.805,6.029,CST-1368DR,7071,9909,15271,0.089,551
2019-12-28T12:59:33,42.805,6.029,CST-1368DR,7071,9909,15272,0.089,551
2019-12-28T13:02:35,42.805,6.029,CST-1368DR,7071,9908,15270,0.090,551
2019-12-28T13:05:36,42.805,6.029,CST-1368DR,7071,9909,15271,0.089,551
2019-12-28T13:08:38,42.805,6.029,CST-1368DR,7071,9909,15271,0.089,551
2019-12-28T13:11:40,42.805,6.029,CST-1368DR,7071,9907,15269,0.090,551
2019-12-28T13:14:41,42.805,6.029,CST-1368DR,7071,9907,15269,0.090,551
2019-12-28T13:17:43,42.805,6.029,CST-1368DR,7071,9909,15273,0.089,551
2019-12-28T13:20:45,42.805,6.029,CST-1368DR,7071,9907,15269,0.090,550
2019-12-28T13:23:46,42.805,6.029,CST-1368DR,7071,9908,15270,0.090,550
2019-12-28T13:26:48,42.805,6.029,CST-1368DR,7071,9908,15271,0.089,551
2019-12-28T13:29:50,42.805,6.029,CST-1368DR,7071,9908,15270,0.090,551
2019-12-28T13:32:51,42.805,6.029,CST-1368DR,7070,9908,15273,0.089,551
2019-12-28T13:35:53,42.805,6.029,CST-1368DR,7071,9908,15271,0.089,551
2019-12-28T13:38:54,42.805,6.029,CST-1368DR,7070,9908,15272,0.089,551
2019-12-28T13:41:56,42.805,6.029,CST-1368DR,7070,9907,15270,0.090,551
2019-12-28T13:44:58,42.805,6.029,CST-1368DR,7070,9907,15271,0.089,551
2019-12-28T13:47:59,42.805,6.029,CST-1368DR,7071,9909,15271,0.089,551
2019-12-28T13:51:01,42.805,6.029,CST-1368DR,7070,9907,15271,0.089,551
2019-12-28T13:54:03,42.805,6.029,CST-1368DR,7070,9907,15271,0.089,551
2019-12-28T13:57:04,42.805,6.029,CST-1368DR,7070,9909,15273,0.089,551
2019-12-28T14:00:07,42.805,6.029,CST-1368DR,7070,9906,15270,0.090,551
2019-12-28T14:03:08,42.805,6.029,CST-1368DR,7070,9906,15270,0.090,551
2019-12-28T14:06:10,42.805,6.029,CST-1368DR,7070,9907,15271,0.089,551
2019-12-28T14:09:12,42.805,6.029,CST-1368DR,7070,9905,15267,0.090,551
2019-12-28T14:12:13,42.805,6.029,CST-1368DR,7070,9906,15270,0.090,550
2019-12-28T14:15:15,42.805,6.029,CST-1368DR,7070,9907,15271,0.089,551
2019-12-28T14:18:17,42.805,6.029,CST-1368DR,7070,9907,15271,0.089,551
2019-12-28T14:21:18,42.805,6.029,CST-1368DR,7070,9908,15272,0.089,551
2019-12-28T14:24:20,42.805,6.029,CST-1368DR,7070,9906,15269,0.090,551
2019-12-28T14:27:22,42.805,6.029,CST-1368DR,7070,9907,15270,0.090,551
2019-12-28T14:30:23,42.805,6.029,CST-1368DR,7070,9907,15271,0.089,551
2019-12-28T14:33:25,42.805,6.029,CST-1368DR,7070,9907,15271,0.089,551
2019-12-28T14:36:27,42.805,6.029,CST-1368DR,7070,9907,15270,0.090,551
2019-12-28T14:39:28,42.805,6.029,CST-1368DR,7070,9905,15267,0.090,551
2019-12-28T14:42:30,42.805,6.029,CST-1368DR,7070,9906,15269,0.090,551
2019-12-28T14:45:32,42.805,6.029,CST-1368DR,7070,9906,15270,0.090,551
2019-12-28T14:48:33,42.805,6.029,CST-1368DR,7070,9907,15270,0.090,551
2019-12-28T14:51:35,42.805,6.029,CST-1368DR,7070,9907,15271,0.089,551
2019-12-28T14:54:37,42.805,6.029,CST-1368DR,7070,9906,15270,0.090,551
2019-12-28T14:57:38,42.805,6.029,CST-1368DR,7070,9906,15270,0.090,550
2019-12-28T15:00:40,42.805,6.029,CST-1368DR,7070,9907,15271,0.089,551
2019-12-28T15:03:42,42.805,6.029,CST-1368DR,7070,9907,15271,0.089,551
2019-12-28T15:06:43,42.805,6.029,CST-1368DR,7070,9903,15265,0.091,551
2019-12-28T15:09:45,42.805,6.029,CST-1368DR,7070,9905,15268,0.090,551
2019-12-28T15:12:47,42.805,6.029,CST-1368DR,7070,9908,15272,0.089,550
2019-12-28T15:15:48,42.805,6.029,CST-1368DR,7070,9907,15271,0.089,551
2019-12-28T15:18:50,42.805,6.029,CST-1368DR,7070,9906,15270,0.090,551
2019-12-28T15:21:51,42.805,6.029,CST-1368DR,7070,9906,15269,0.090,551
2019-12-28T15:24:53,42.805,6.029,CST-1368DR,7070,9904,15266,0.091,551
2019-12-28T15:27:55,42.805,6.029,CST-1368DR,7070,9906,15270,0.090,551
2019-12-28T15:30:56,42.805,6.029,CST-1368DR,7070,9907,15270,0.090,551
2019-12-28T15:33:58,42.805,6.029,CST-1368DR,7070,9906,15270,0.090,551
2019-12-28T15:37:00,42.805,6.029,CST-1368DR,7070,9906,15269,0.090,551
2019-12-28T15:40:01,42.805,6.029,CST-1368DR,7070,9906,15270,0.090,551
2019-12-28T15:43:03,42.805,6.029,CST-1368DR,7070,9907,15270,0.090,551
2019-12-28T15:46:05,42.805,6.029,CST-1368DR,7070,9907,15271,0.089,550
2019-12-28T15:49:06,42.805,6.029,CST-1368DR,7070,9906,15270,0.090,551
2019-12-28T15:52:08,42.805,6.029,CST-1368DR,7070,9906,15269,0.090,551
2019-12-28T15:55:09,42.805,6.029,CST-1368DR,7070,9907,15271,0.089,551
2019-12-28T15:58:11,42.805,6.029,CST-1368DR,7070,9906,15269,0.090,551
2019-12-28T16:01:13,42.805,6.029,CST-1368DR,7070,9904,15266,0.091,551
2019-12-28T16:04:14,42.805,6.029,CST-1368DR,7070,9903,15265,0.091,551
2019-12-28T16:07:16,42.805,6.029,CST-1368DR,7070,9908,15272,0.089,551
2019-12-28T16:10:18,42.805,6.029,CST-1368DR,7070,9907,15271,0.089,551
2019-12-28T16:13:20,42.805,6.029,CST-1368DR,7070,9906,15269,0.090,551
2019-12-28T16:16:21,42.805,6.029,CST-1368DR,7070,9906,15269,0.090,551
2019-12-28T16:19:23,42.805,6.029,CST-1368DR,7070,9906,15270,0.090,551
2019-12-28T16:22:25,42.805,6.029,CST-1368DR,7070,9906,15270,0.090,551
2019-12-28T16:25:26,42.805,6.029,CST-1368DR,7070,9904,15267,0.090,551
2019-12-28T16:28:28,42.805,6.029,CST-1368DR,7070,9907,15271,0.089,551
2019-12-28T16:31:30,42.805,6.029,CST-1368DR,7070,9905,15268,0.090,551
2019-12-28T16:34:32,42.805,6.029,CST-1368DR,7070,9908,15272,0.089,550
2019-12-28T16:37:33,42.805,6.029,CST-1368DR,7070,9906,15270,0.090,551
2019-12-28T16:40:35,42.805,6.029,CST-1368DR,7070,9906,15270,0.090,551
2019-12-28T16:43:37,42.805,6.029,CST-1368DR,7070,9906,15269,0.090,551
2019-12-28T16:46:38,42.805,6.029,CST-1368DR,7070,9905,15267,0.090,551
2019-12-28T16:49:40,42.805,6.029,CST-1368DR,7070,9906,15270,0.090,551
2019-12-28T16:52:42,42.805,6.029,CST-1368DR,7070,9903,15265,0.091,551